| time (UTC) | temp F | wind direction | speed knots | gust knots | rain 1hr in | rain 24hr in | rain mn in | humidity % | barometer mb |
| 20260504040510 | 54 | 224 | 7.0 | 8.7 | 0.00 | 0.00 | 0.00 | 75 | 1007.8 |
| 20260504040028 | 55 | 237 | 6.1 | 8.7 | 0.00 | 0.00 | 0.00 | 74 | 1007.8 |
| 20260504035512 | 55 | 219 | 6.1 | 8.7 | 0.00 | 0.00 | 0.00 | 74 | 1007.9 |
| 20260504035007 | 55 | 236 | 7.0 | 9.6 | 0.00 | 0.00 | 0.00 | 73 | 1008.0 |
| 20260504034529 | 55 | 226 | 7.0 | 9.6 | 0.00 | 0.00 | 0.00 | 73 | 1008.0 |
| 20260504034011 | 55 | 220 | 7.8 | 9.6 | 0.00 | 0.00 | 0.00 | 73 | 1008.1 |
| 20260504033507 | 55 | 219 | 7.0 | 8.7 | 0.00 | 0.00 | 0.00 | 72 | 1008.1 |
| 20260504033017 | 56 | 232 | 5.2 | 8.7 | 0.00 | 0.00 | 0.00 | 71 | 1008.1 |
| 20260504032509 | 57 | 231 | 7.0 | 11.3 | 0.00 | 0.00 | 0.00 | 71 | 1008.2 |
| 20260504032009 | 57 | 224 | 7.8 | 11.3 | 0.00 | 0.00 | 0.00 | 71 | 1008.2 |
| 20260504031524 | 57 | 225 | 7.0 | 9.6 | 0.00 | 0.00 | 0.00 | 70 | 1008.2 |
| 20260504031008 | 57 | 243 | 5.2 | 7.8 | 0.00 | 0.00 | 0.00 | 70 | 1008.1 |
| 20260504030507 | 57 | 244 | 4.3 | 7.8 | 0.00 | 0.00 | 0.00 | 70 | 1008.2 |
| 20260504030023 | 57 | 240 | 5.2 | 7.0 | 0.00 | 0.00 | 0.00 | 69 | 1008.1 |
| 20260504025507 | 57 | 253 | 5.2 | 7.0 | 0.00 | 0.00 | 0.00 | 69 | 1008.2 |
| 20260504025012 | 57 | 256 | 5.2 | 7.0 | 0.00 | 0.00 | 0.00 | 68 | 1008.1 |
| 20260504024528 | 57 | 257 | 5.2 | 7.0 | 0.00 | 0.00 | 0.00 | 69 | 1008.0 |
| 20260504024009 | 57 | 236 | 4.3 | 7.0 | 0.00 | 0.00 | 0.00 | 68 | 1008.0 |
| 20260504023504 | 57 | 249 | 5.2 | 6.1 | 0.00 | 0.00 | 0.00 | 69 | 1008.0 |
| 20260504023005 | 57 | 238 | 5.2 | 6.1 | 0.00 | 0.00 | 0.00 | 69 | 1008.0 |
| 20260504022506 | 57 | 239 | 5.2 | 6.1 | 0.00 | 0.00 | 0.00 | 69 | 1008.0 |
| 20260504022004 | 57 | 232 | 5.2 | 6.1 | 0.00 | 0.00 | 0.00 | 68 | 1008.0 |
| 20260504021502 | 58 | 241 | 5.2 | 6.1 | 0.00 | 0.00 | 0.00 | 67 | 1008.1 |
| 20260504021004 | 58 | 236 | 5.2 | 6.1 | 0.00 | 0.00 | 0.00 | 67 | 1008.1 |
| 20260504020503 | 58 | 231 | 5.2 | 7.0 | 0.00 | 0.00 | 0.00 | 67 | 1008.0 |
| 20260504020003 | 58 | 240 | 6.1 | 7.0 | 0.00 | 0.00 | 0.00 | 67 | 1007.9 |
| 20260504015503 | 58 | 240 | 6.1 | 7.0 | 0.00 | 0.00 | 0.00 | 66 | 1007.9 |
| 20260504015005 | 59 | 249 | 6.1 | 7.0 | 0.00 | 0.00 | 0.00 | 66 | 1007.9 |
| 20260504014506 | 58 | 251 | 4.3 | 6.1 | 0.00 | 0.00 | 0.00 | 65 | 1007.8 |
| 20260504014003 | 58 | 238 | 4.3 | 6.1 | 0.00 | 0.00 | 0.00 | 65 | 1007.8 |
| 20260504013503 | 59 | 231 | 5.2 | 6.1 | 0.00 | 0.00 | 0.00 | 65 | 1007.8 |
| 20260504013006 | 59 | 224 | 5.2 | 6.1 | 0.00 | 0.00 | 0.00 | 65 | 1007.8 |
| 20260504012504 | 59 | 231 | 5.2 | 6.1 | 0.00 | 0.00 | 0.00 | 64 | 1007.7 |
| 20260504012004 | 59 | 221 | 5.2 | 6.1 | 0.00 | 0.00 | 0.00 | 63 | 1007.8 |
| 20260504011504 | 59 | 232 | 4.3 | 6.1 | 0.00 | 0.00 | 0.00 | 62 | 1007.7 |
| 20260504011004 | 60 | 233 | 5.2 | 6.1 | 0.00 | 0.00 | 0.00 | 61 | 1007.7 |
| 20260504010503 | 60 | 243 | 4.3 | 6.1 | 0.00 | 0.00 | 0.00 | 60 | 1007.6 |
| 20260504010006 | 61 | 233 | 5.2 | 6.1 | 0.00 | 0.00 | 0.00 | 59 | 1007.6 |
| 20260504005504 | 61 | 242 | 4.3 | 5.2 | 0.00 | 0.00 | 0.00 | 58 | 1007.6 |
| 20260504005004 | 62 | 233 | 4.3 | 6.1 | 0.00 | 0.00 | 0.00 | 57 | 1007.6 |
| 20260504004503 | 62 | 233 | 4.3 | 6.1 | 0.00 | 0.00 | 0.00 | 56 | 1007.5 |
| 20260504004003 | 63 | 231 | 3.5 | 4.3 | 0.00 | 0.00 | 0.00 | 55 | 1007.6 |
| 20260504003503 | 64 | 243 | 2.6 | 5.2 | 0.00 | 0.00 | 0.00 | 53 | 1007.7 |
| 20260504003006 | 65 | 250 | 3.5 | 6.1 | 0.00 | 0.00 | 0.00 | 52 | 1007.7 |
| 20260504002503 | 65 | 246 | 4.3 | 7.0 | 0.00 | 0.00 | 0.00 | 51 | 1007.6 |
| 20260504002004 | 66 | 249 | 5.2 | 7.8 | 0.00 | 0.00 | 0.00 | 51 | 1007.6 |
| 20260504001508 | 66 | 245 | 6.1 | 8.7 | 0.00 | 0.00 | 0.00 | 49 | 1007.7 |
| 20260504001004 | 67 | 242 | 7.0 | 9.6 | 0.00 | 0.00 | 0.00 | 48 | 1007.6 |
| 20260504000504 | 67 | 236 | 7.0 | 10.4 | 0.00 | 0.00 | 0.00 | 48 | 1007.6 |
| 20260504000019 | 67 | 238 | 7.8 | 10.4 | 0.00 | 0.00 | 0.00 | 48 | 1007.5 |
| 20260503235506 | 67 | 248 | 7.8 | 10.4 | 0.00 | 0.00 | 0.00 | 48 | 1007.6 |
| 20260503235004 | 67 | 263 | 7.8 | 11.3 | 0.00 | 0.00 | 0.00 | 47 | 1007.6 |
| 20260503234508 | 67 | 251 | 8.7 | 12.2 | 0.00 | 0.00 | 0.00 | 47 | 1007.6 |
| 20260503234004 | 67 | 250 | 8.7 | 13.0 | 0.00 | 0.00 | 0.00 | 46 | 1007.5 |
| 20260503233505 | 67 | 250 | 10.4 | 13.0 | 0.00 | 0.00 | 0.00 | 45 | 1007.5 |
| 20260503233007 | 67 | 240 | 10.4 | 12.2 | 0.00 | 0.00 | 0.00 | 45 | 1007.6 |
| 20260503232504 | 67 | 247 | 8.7 | 11.3 | 0.00 | 0.00 | 0.00 | 46 | 1007.7 |
| 20260503232004 | 68 | 213 | 9.6 | 12.2 | 0.00 | 0.00 | 0.00 | 45 | 1007.7 |
| 20260503231509 | 68 | 248 | 9.6 | 13.0 | 0.00 | 0.00 | 0.00 | 44 | 1007.7 |
| 20260503231004 | 68 | 242 | 10.4 | 13.9 | 0.00 | 0.00 | 0.00 | 44 | 1007.7 |
| 20260503230504 | 68 | 233 | 11.3 | 15.6 | 0.00 | 0.00 | 0.00 | 43 | 1007.8 |
| 20260503230008 | 68 | 246 | 12.2 | 15.6 | 0.00 | 0.00 | 0.00 | 42 | 1007.7 |
| 20260503225504 | 68 | 251 | 11.3 | 17.4 | 0.00 | 0.00 | 0.00 | 43 | 1007.8 |
| 20260503225007 | 68 | 252 | 12.2 | 17.4 | 0.00 | 0.00 | 0.00 | 43 | 1007.8 |
| 20260503224508 | 68 | 233 | 12.2 | 15.6 | 0.00 | 0.00 | 0.00 | 43 | 1007.9 |
| 20260503224004 | 67 | 240 | 12.2 | 15.6 | 0.00 | 0.00 | 0.00 | 44 | 1008.0 |
| 20260503223504 | 68 | 236 | 13.9 | 17.4 | 0.00 | 0.00 | 0.00 | 42 | 1008.1 |
| 20260503223008 | 68 | 245 | 13.0 | 18.2 | 0.00 | 0.00 | 0.00 | 43 | 1008.1 |
| 20260503222503 | 68 | 250 | 13.0 | 20.0 | 0.00 | 0.00 | 0.00 | 42 | 1008.1 |
| 20260503222003 | 67 | 241 | 15.6 | 20.0 | 0.00 | 0.00 | 0.00 | 43 | 1008.2 |
| 20260503221508 | 67 | 224 | 15.6 | 19.1 | 0.00 | 0.00 | 0.00 | 44 | 1008.1 |
| 20260503221003 | 66 | 252 | 14.8 | 18.2 | 0.00 | 0.00 | 0.00 | 45 | 1008.2 |
| 20260503220502 | 66 | 253 | 13.9 | 20.9 | 0.00 | 0.00 | 0.00 | 43 | 1008.2 |
| 20260503220012 | 66 | 240 | 14.8 | 20.9 | 0.00 | 0.00 | 0.00 | 43 | 1008.3 |
| 20260503215504 | 66 | 235 | 16.5 | 19.1 | 0.00 | 0.00 | 0.00 | 43 | 1008.3 |
| 20260503215003 | 66 | 236 | 14.8 | 20.0 | 0.00 | 0.00 | 0.00 | 43 | 1008.4 |
| 20260503214509 | 66 | 241 | 14.8 | 21.7 | 0.00 | 0.00 | 0.00 | 44 | 1008.3 |
| 20260503214005 | 66 | 233 | 16.5 | 21.7 | 0.00 | 0.00 | 0.00 | 44 | 1008.2 |
| 20260503213504 | 66 | 238 | 15.6 | 20.0 | 0.00 | 0.00 | 0.00 | 44 | 1008.2 |
| 20260503213010 | 65 | 239 | 15.6 | 22.6 | 0.00 | 0.00 | 0.00 | 44 | 1008.3 |
| 20260503212506 | 65 | 239 | 16.5 | 22.6 | 0.00 | 0.00 | 0.00 | 43 | 1008.5 |
| 20260503212004 | 66 | 229 | 17.4 | 23.5 | 0.00 | 0.00 | 0.00 | 43 | 1008.5 |
| 20260503211515 | 66 | 223 | 18.2 | 24.3 | 0.00 | 0.00 | 0.00 | 42 | 1008.5 |
| 20260503211003 | 66 | 233 | 18.2 | 24.3 | 0.00 | 0.00 | 0.00 | 42 | 1008.4 |
| 20260503210502 | 66 | 224 | 18.2 | 24.3 | 0.00 | 0.00 | 0.00 | 43 | 1008.4 |
| 20260503210010 | 66 | 221 | 18.2 | 24.3 | 0.00 | 0.00 | 0.00 | 45 | 1008.5 |
| 20260503205506 | 65 | 227 | 19.1 | 23.5 | 0.00 | 0.00 | 0.00 | 45 | 1008.5 |
| 20260503205007 | 65 | 223 | 16.5 | 28.7 | 0.00 | 0.00 | 0.00 | 46 | 1008.8 |
| 20260503204512 | 65 | 222 | 19.1 | 28.7 | 0.00 | 0.00 | 0.00 | 45 | 1009.0 |
| 20260503204005 | 65 | 234 | 19.1 | 24.3 | 0.00 | 0.00 | 0.00 | 44 | 1008.9 |
| 20260503203504 | 65 | 212 | 14.8 | 27.8 | 0.00 | 0.00 | 0.00 | 46 | 1009.0 |
| 20260503203019 | 65 | 226 | 20.0 | 28.7 | 0.00 | 0.00 | 0.00 | 45 | 1009.1 |
| 20260503202503 | 66 | 209 | 20.9 | 28.7 | 0.00 | 0.00 | 0.00 | 44 | 1009.4 |
| 20260503202006 | 66 | 227 | 22.6 | 28.7 | 0.00 | 0.00 | 0.00 | 43 | 1009.4 |
| 20260503201514 | 66 | 227 | 18.2 | 27.8 | 0.00 | 0.00 | 0.00 | 43 | 1009.4 |
| 20260503201002 | 66 | 222 | 19.1 | 28.7 | 0.00 | 0.00 | 0.00 | 45 | 1009.4 |
| 20260503200503 | 65 | 200 | 20.9 | 28.7 | 0.00 | 0.00 | 0.00 | 44 | 1009.3 |
| 20260503200004 | 66 | 228 | 21.7 | 31.3 | 0.00 | 0.00 | 0.00 | 42 | 1009.4 |
| 20260503195503 | 66 | 230 | 24.3 | 31.3 | 0.00 | 0.00 | 0.00 | 42 | 1009.5 |
| 20260503195005 | 65 | 198 | 20.9 | 31.3 | 0.00 | 0.00 | 0.00 | 44 | 1009.5 |
| 20260503194514 | 66 | 220 | 20.0 | 31.3 | 0.00 | 0.00 | 0.00 | 45 | 1009.4 |
| 20260503194003 | 65 | 210 | 21.7 | 28.7 | 0.00 | 0.00 | 0.00 | 45 | 1009.7 |
| 20260503193506 | 65 | 216 | 21.7 | 28.7 | 0.00 | 0.00 | 0.00 | 45 | 1009.8 |
| 20260503193018 | 65 | 208 | 22.6 | 28.7 | 0.00 | 0.00 | 0.00 | 44 | 1009.7 |
| 20260503192503 | 65 | 233 | 20.0 | 29.5 | 0.00 | 0.00 | 0.00 | 45 | 1009.8 |
| 20260503192003 | 65 | 210 | 22.6 | 29.5 | 0.00 | 0.00 | 0.00 | 45 | 1009.8 |
| 20260503191512 | 65 | 207 | 21.7 | 28.7 | 0.00 | 0.00 | 0.00 | 45 | 1009.8 |
| 20260503191003 | 64 | 204 | 19.1 | 28.7 | 0.00 | 0.00 | 0.00 | 46 | 1009.9 |
| 20260503190502 | 64 | 178 | 20.9 | 27.8 | 0.00 | 0.00 | 0.00 | 46 | 1009.9 |
| 20260503190006 | 64 | 207 | 19.1 | 31.3 | 0.00 | 0.00 | 0.00 | 47 | 1010.0 |
| 20260503185502 | 63 | 219 | 20.9 | 31.3 | 0.00 | 0.00 | 0.00 | 46 | 1010.2 |
| 20260503185003 | 63 | 215 | 24.3 | 31.3 | 0.00 | 0.00 | 0.00 | 44 | 1010.3 |
| 20260503184508 | 63 | 223 | 18.2 | 27.8 | 0.00 | 0.00 | 0.00 | 48 | 1010.7 |
| 20260503184005 | 62 | 219 | 19.1 | 27.8 | 0.00 | 0.00 | 0.00 | 46 | 1011.0 |
| 20260503183504 | 62 | 224 | 19.1 | 27.8 | 0.00 | 0.00 | 0.00 | 47 | 1011.0 |
| 20260503183013 | 62 | 220 | 18.2 | 26.9 | 0.00 | 0.00 | 0.00 | 48 | 1011.2 |
| 20260503182503 | 61 | 201 | 18.2 | 24.3 | 0.00 | 0.00 | 0.00 | 47 | 1011.3 |
| 20260503182004 | 61 | 211 | 19.1 | 26.1 | 0.00 | 0.00 | 0.00 | 47 | 1011.6 |
| 20260503181517 | 61 | 224 | 20.9 | 26.1 | 0.00 | 0.00 | 0.00 | 46 | 1011.8 |
| 20260503181004 | 61 | 233 | 19.1 | 24.3 | 0.00 | 0.00 | 0.00 | 46 | 1012.0 |
| 20260503180505 | 62 | 224 | 17.4 | 25.2 | 0.00 | 0.00 | 0.00 | 46 | 1012.1 |
| 20260503180026 | 62 | 224 | 20.0 | 25.2 | 0.00 | 0.00 | 0.00 | 45 | 1012.1 |
| 20260503175504 | 62 | 227 | 17.4 | 22.6 | 0.00 | 0.00 | 0.00 | 47 | 1012.3 |
| 20260503175003 | 61 | 226 | 18.2 | 22.6 | 0.00 | 0.00 | 0.00 | 46 | 1012.5 |
| 20260503174513 | 61 | 245 | 16.5 | 22.6 | 0.00 | 0.00 | 0.00 | 48 | 1012.7 |
| 20260503174004 | 61 | 224 | 18.2 | 22.6 | 0.00 | 0.00 | 0.00 | 47 | 1012.9 |
| 20260503173503 | 61 | 215 | 14.8 | 22.6 | 0.00 | 0.00 | 0.00 | 48 | 1013.3 |
| 20260503173018 | 61 | 207 | 16.5 | 22.6 | 0.00 | 0.00 | 0.00 | 47 | 1013.2 |
| 20260503172504 | 61 | 236 | 15.6 | 20.9 | 0.00 | 0.00 | 0.00 | 49 | 1013.2 |
| 20260503172003 | 60 | 228 | 15.6 | 22.6 | 0.00 | 0.00 | 0.00 | 48 | 1013.1 |
| 20260503171512 | 60 | 224 | 16.5 | 22.6 | 0.00 | 0.00 | 0.00 | 47 | 1013.0 |
| 20260503171006 | 60 | 231 | 17.4 | 22.6 | 0.00 | 0.00 | 0.00 | 47 | 1013.1 |
| 20260503170506 | 60 | 220 | 17.4 | 21.7 | 0.00 | 0.00 | 0.00 | 47 | 1013.1 |
| 20260503150503 | 55 | 226 | 16.5 | 20.0 | 0.00 | 0.00 | 0.00 | 61 | 1015.1 |
| 20260503131005 | 50 | 224 | 13.9 | 17.4 | 0.00 | 0.00 | 0.00 | 72 | 1016.1 |
| 20260503130505 | 50 | 218 | 13.9 | 17.4 | 0.00 | 0.00 | 0.00 | 71 | 1015.9 |
| 20260503110507 | 44 | 205 | 10.4 | 13.9 | 0.00 | 0.00 | 0.00 | 75 | 1015.9 |
| 20260503090503 | 43 | 206 | 8.7 | 12.2 | 0.00 | 0.00 | 0.00 | 71 | 1016.4 |
| 20260503081518 | 43 | 221 | 9.6 | 11.3 | 0.00 | 0.00 | 0.00 | 67 | 1016.5 |
| 20260503081003 | 43 | 218 | 7.8 | 11.3 | 0.00 | 0.00 | 0.00 | 67 | 1016.6 |
| 20260503080503 | 43 | 218 | 8.7 | 11.3 | 0.00 | 0.00 | 0.00 | 66 | 1016.5 |
| 20260503072510 | 44 | 226 | 7.8 | 11.3 | 0.00 | 0.00 | 0.00 | 63 | 1016.5 |
| 20260503072008 | 44 | 205 | 8.7 | 11.3 | 0.00 | 0.00 | 0.00 | 62 | 1016.5 |
| 20260503071526 | 44 | 210 | 7.8 | 11.3 | 0.00 | 0.00 | 0.00 | 63 | 1016.6 |
| 20260503071008 | 44 | 216 | 7.8 | 10.4 | 0.00 | 0.00 | 0.00 | 63 | 1016.6 |
| 20260503070511 | 44 | 220 | 7.8 | 10.4 | 0.00 | 0.00 | 0.00 | 63 | 1016.6 |
| 20260503055011 | 44 | 211 | 5.2 | 8.7 | 0.00 | 0.00 | 0.00 | 63 | 1017.3 |
| 20260503054003 | 44 | 205 | 6.1 | 8.7 | 0.00 | 0.00 | 0.00 | 63 | 1017.4 |
| 20260503053504 | 45 | 220 | 7.0 | 8.7 | 0.00 | 0.00 | 0.00 | 63 | 1017.4 |
| 20260503052506 | 44 | 209 | 6.1 | 7.8 | 0.00 | 0.00 | 0.00 | 63 | 1017.5 |
| 20260503052008 | 44 | 208 | 5.2 | 7.8 | 0.00 | 0.00 | 0.00 | 63 | 1017.5 |
| 20260503051007 | 44 | 216 | 6.1 | 7.8 | 0.00 | 0.00 | 0.00 | 63 | 1017.5 |
| 20260503050507 | 44 | 217 | 6.1 | 7.8 | 0.00 | 0.00 | 0.00 | 64 | 1017.5 |
| 20260503050024 | 44 | 214 | 6.1 | 7.8 | 0.00 | 0.00 | 0.00 | 64 | 1017.5 |
| 20260503045509 | 44 | 224 | 6.1 | 7.8 | 0.00 | 0.00 | 0.00 | 64 | 1017.5 |
| 20260503045007 | 44 | 226 | 5.2 | 7.8 | 0.00 | 0.00 | 0.00 | 65 | 1017.5 |
| 20260503044529 | 44 | 225 | 6.1 | 7.8 | 0.00 | 0.00 | 0.00 | 65 | 1017.4 |
| 20260503044011 | 44 | 226 | 5.2 | 7.0 | 0.00 | 0.00 | 0.00 | 66 | 1017.5 |
| 20260503043510 | 44 | 228 | 6.1 | 7.0 | 0.00 | 0.00 | 0.00 | 65 | 1017.5 |
| 20260503043025 | 44 | 224 | 5.2 | 7.0 | 0.00 | 0.00 | 0.00 | 65 | 1017.5 |
| 20260503042504 | 45 | 231 | 5.2 | 7.0 | 0.00 | 0.00 | 0.00 | 65 | 1017.4 |
| 20260503042004 | 45 | 216 | 5.2 | 7.0 | 0.00 | 0.00 | 0.00 | 64 | 1017.5 |
| 20260503041520 | 45 | 215 | 5.2 | 7.0 | 0.00 | 0.00 | 0.00 | 63 | 1017.5 |
| 20260503041004 | 45 | 228 | 5.2 | 7.0 | 0.00 | 0.00 | 0.00 | 63 | 1017.5 |